Weather History for KBIV - August, 2013

Change the Weather History Date:

Thursday, August 15, 2013

  Actual Average Record
Temperature  
Mean Temperature 63 °F 71 °F  
Max Temperature 76 °F 81 °F 90 °F (1988)
Min Temperature 49 °F 62 °F 44 °F (1963)
Degree Days  
Heating Degree Days 2 0  
Month to date heating degree days 11 0  
Since 1 June heating degree days 53 54  
Since 1 July heating degree days 19 6  
Cooling Degree Days 0 7  
Month to date cooling degree days 54 105  
Year to date cooling degree days 579 528  
Since 1 June cooling degree days 489 486  
Growing Degree Days 12 (Base 50)    
Moisture  
Dew Point 51 °F    
Average Humidity 71    
Maximum Humidity 93    
Minimum Humidity 49    
Precipitation  
Precipitation 0.00 in 0.14 in 1.27 in (1951)
Month to date precipitation 1.34 1.57  
Year to date precipitation 27.53 21.21  
Sea Level Pressure  
Sea Level Pressure 30.16 in    
Wind  
Wind Speed 4 mph (SW)    
Max Wind Speed 15 mph    
Max Gust Speed 22 mph    
Visibility 7 miles    
Events      
T = Trace of Precipitation, MM = Missing Value Source: NWS Daily Summary

Daily Weather History Graph

Daily Weather History Graph

Search for Another Location

Airport or City:

Trip Planner

Search our weather history database for the weather conditions in past years. The results will help you decide how hot, cold, wet, or windy it might be!

Date:

Astronomy

Aug. 15, 2013 Rise Set
Actual Time 6:51 AM EDT 8:45 PM EDT
Civil Twilight 6:20 AM EDT 9:16 PM EDT
Nautical Twilight 5:43 AM EDT 9:53 PM EDT
Astronomical Twilight 5:02 AM EDT 10:33 PM EDT
Moon 4:04 PM EDT (8/15) 12:57 AM EDT (8/15)
Length of Visible Light 14h 55m
Length of Day
13h 54m
Waxing Gibbous, 64% of the Moon is Illuminated
Aug 15
Waxing Gibbous
Aug 20
Full
Aug 28
Last Quarter
Sep 5
New
Sep 12
First Quarter

Hourly Weather History & Observations

Time (EDT) Temp. Dew Point Humidity Pressure Visibility Wind Dir Wind Speed Gust Speed Precip Events Conditions
12:53 AM 52.0 °F 48.0 °F 86% 30.18 in 10.0 mi Calm Calm - N/A   Clear
1:49 AM 51.8 °F 46.4 °F 82% 30.18 in 1.8 mi Calm Calm - N/A   Partly Cloudy
1:53 AM 50.0 °F 46.9 °F 89% 30.18 in 1.2 mi Calm Calm - N/A   Partly Cloudy
1:58 AM 51.8 °F 46.4 °F 82% 30.18 in 2.0 mi Calm Calm - N/A   Clear
2:05 AM 51.8 °F 48.2 °F 88% 30.18 in 10.0 mi Calm Calm - N/A   Clear
2:43 AM 50.0 °F 46.4 °F 87% 30.17 in 1.2 mi Calm Calm - N/A   Clear
2:51 AM 51.8 °F 46.4 °F 82% 30.17 in 0.8 mi Calm Calm - N/A   Clear
2:53 AM 51.1 °F 46.9 °F 86% 30.17 in 1.0 mi Calm Calm - N/A   Clear
2:55 AM 50.0 °F 46.4 °F 87% 30.17 in 2.0 mi Calm Calm - N/A   Clear
3:02 AM 50.0 °F 46.4 °F 87% 30.17 in 10.0 mi Calm Calm - N/A   Clear
3:53 AM 50.0 °F 46.9 °F 89% 30.16 in 7.0 mi Calm Calm - N/A   Clear
4:53 AM 48.9 °F 46.0 °F 90% 30.17 in 4.0 mi Calm Calm - N/A   Clear
4:58 AM 50.0 °F 46.4 °F 87% 30.16 in 1.8 mi Calm Calm - N/A   Clear
5:05 AM 48.2 °F 46.4 °F 93% 30.16 in 1.0 mi Calm Calm - N/A   Clear
5:10 AM 50.0 °F 46.4 °F 87% 30.16 in 2.5 mi Calm Calm - N/A   Clear
5:17 AM 51.8 °F 46.4 °F 82% 30.16 in 9.0 mi Calm Calm - N/A   Clear
5:53 AM 51.1 °F 46.9 °F 86% 30.17 in 10.0 mi Calm Calm - N/A   Partly Cloudy
6:53 AM 52.0 °F 48.9 °F 89% 30.16 in 10.0 mi SSE 3.5 mph - N/A   Partly Cloudy
7:53 AM 54.0 °F 51.1 °F 90% 30.17 in 10.0 mi Calm Calm - N/A   Overcast
8:53 AM 60.1 °F 55.0 °F 83% 30.17 in 10.0 mi South 4.6 mph - N/A   Scattered Clouds
9:53 AM 63.0 °F 55.9 °F 78% 30.17 in 10.0 mi South 5.8 mph - N/A   Overcast
10:53 AM 66.9 °F 57.9 °F 73% 30.17 in 10.0 mi SSW 8.1 mph - N/A   Overcast
11:53 AM 72.0 °F 57.9 °F 61% 30.17 in 10.0 mi WSW 15.0 mph 21.9 mph N/A   Partly Cloudy
12:53 PM 72.0 °F 57.9 °F 61% 30.16 in 10.0 mi SW 12.7 mph 17.3 mph N/A   Clear
1:53 PM 73.9 °F 57.0 °F 55% 30.14 in 10.0 mi WSW 9.2 mph - N/A   Clear
2:53 PM 75.0 °F 57.0 °F 53% 30.14 in 10.0 mi WSW 8.1 mph - N/A   Clear
3:53 PM 75.0 °F 55.9 °F 51% 30.13 in 10.0 mi WSW 10.4 mph - N/A   Clear
4:53 PM 75.0 °F 55.9 °F 51% 30.12 in 10.0 mi West 8.1 mph - N/A   Clear
5:53 PM 73.0 °F 55.0 °F 53% 30.12 in 10.0 mi WSW 9.2 mph - N/A   Clear
6:53 PM 73.0 °F 53.1 °F 49% 30.12 in 10.0 mi WSW 6.9 mph - N/A   Clear
7:53 PM 70.0 °F 55.0 °F 59% 30.12 in 10.0 mi WSW 3.5 mph - N/A   Clear
8:53 PM 64.0 °F 55.9 °F 75% 30.13 in 10.0 mi Calm Calm - N/A   Clear
9:53 PM 60.1 °F 55.0 °F 83% 30.14 in 10.0 mi Calm Calm - N/A   Clear
10:53 PM 57.9 °F 54.0 °F 87% 30.14 in 10.0 mi Calm Calm - N/A   Clear
11:53 PM 57.0 °F 54.0 °F 89% 30.14 in 7.0 mi Calm Calm - N/A   Clear